Location: Albany
(42.6526°N, 73.7562°W)
Time: 22:27:10
(UTC+00:00)

BREEZE-M R/B - Pass Details

Date: 19 November 2019
Orbit: 309 x 4550 km, 49.7° (Epoch: 05 December)

Event Time Altitude Azimuth Distance (km) Brightness Sun altitude
Rises 23:49:06 0° 229° (SW) 3,775 7.9 -25.6°
Reaches altitude 10° 23:52:33 10° 226° (SW) 2,271 6.5 -26.2°
Enters shadow 23:55:39 32° 211° (SSW) 957 4.2 -26.8°
